Flag for Switzerland Past Weather in Affoltern am Albis, Zurich, Switzerland — Yesterday and Last 2 Weeks

Now
67 °F

Mild.


Feels Like: 67 °F
Forecast: 53 / 71 °F
Wind: 1 mph from Southwest

Location: Zuerich-Fluntern

Current Time: Aug 29, 2016 at 7:51:37 AM

Latest Report: Aug 29, 2016 at 7:00 AM


Visibility: N/A

Pressure: 30.09 "Hg

Humidity: 82%

Dew Point: 61 °F

Location of Affoltern am AlbisLocation

Past Weather in Affoltern am Albis — Graph

°F

Affoltern am Albis Temperature Yesterday

Maximum temperature yesterday: 87 °F (at 5:00 PM)
Minimum temperature yesterday: 68 °F (at 8:00 AM)
Average temperature yesterday: 77 °F

High & Low Weather Summary for the Past Weeks

 TemperatureHumidityPressure
High89 °F (Aug 26, 4:00 PM)97% (Aug 18, 6:00 PM)30.39 "Hg (Aug 18, 6:00 PM)
Low52 °F (Aug 22, 5:00 AM)36% (Aug 28, 5:00 PM)29.80 "Hg (Aug 17, 6:00 PM)
Average69 °F73%30.06 "Hg
* Reported Aug 14 6:00 AM — Aug 29 6:00 AM, Affoltern am Albis, Weather by CustomWeather, © 2016

Note: Actual official high and low records may vary slightly from our data, if they occured in-between our weather recording intervals... More about our weather records

Advertising

Affoltern am Albis Weather History for the Previous 24 Hours

Scroll right to see more
 ConditionsComfort  
Time TempWeatherWind HumidityBarometerVisibility
6:00 AM
Mon, Aug 29
69 °FMild.5 mph71%30.06 "HgN/A
5:00 AM70 °FMild.3 mph71%30.06 "HgN/A
4:00 AM71 °FMild.3 mph65%30.04 "HgN/A
3:00 AM72 °FMild.5 mph63%30.05 "HgN/A
1:00 AM71 °FMild.1 mph69%30.06 "HgN/A
12:00 AM71 °FMild.1 mph69%30.05 "HgN/A
11:00 PM
Sun, Aug 28
73 °FMild.1 mph66%30.04 "HgN/A
10:00 PM75 °FMild.2 mph56%30.03 "HgN/A
9:00 PM78 °FWarm.3 mph48%30.00 "HgN/A
8:00 PM80 °FPassing clouds.7 mph42%29.97 "HgN/A
7:00 PM83 °FWarm.6 mph43%29.95 "HgN/A
6:00 PM85 °FPleasantly warm.6 mph38%29.95 "HgN/A
5:00 PM87 °FPleasantly warm.8 mph36%29.94 "HgN/A
4:00 PM85 °FPleasantly warm.5 mph38%29.96 "HgN/A
3:00 PM86 °FPleasantly warm.6 mph40%29.97 "HgN/A
2:00 PM84 °FSunny.8 mph44%29.99 "HgN/A
1:00 PM82 °FWarm.8 mph47%30.01 "HgN/A
12:00 PM81 °FWarm.7 mph50%30.03 "HgN/A
11:00 AM78 °FWarm.8 mph55%30.05 "HgN/A
10:00 AM75 °FMild.7 mph62%30.06 "HgN/A
9:00 AM70 °FMild.3 mph79%30.06 "HgN/A
8:00 AM68 °FMild.No wind78%30.07 "HgN/A
7:00 AM70 °FMild.3 mph67%30.05 "HgN/A
Weather by CustomWeather, © 2016

See weather overviewHow to use our weather pages